EN

Hourly Weather Amarante do Maranhao

Today, 22 January, Friday

Time Temperature Precipitation Wind Pressure Humidity
00:00 +21°C° 0 mm 0 mps 736 mmHg 97%
01:00 +21°C° 0 mm 0 mps 736 mmHg 97%
02:00 +21°C° 0 mm 0 mps 735 mmHg 97%
03:00 +21°C° 0 mm 0 mps 735 mmHg 98%
04:00 +21°C° 0 mm 0 mps 735 mmHg 97%
05:00 +21°C° 0 mm 0 mps 736 mmHg 97%
06:00 +21°C° 0 mm 0 mps 736 mmHg 97%
07:00 +22°C° 0.1 mm 0 mps 736 mmHg 93%
08:00 +26°C° 0.1 mm 1 mps 737 mmHg 88%
09:00 +27°C° 0.1 mm 1 mps 737 mmHg 84%
10:00 +28°C° 0.6 mm 1 mps 737 mmHg 81%
11:00 +29°C° 0.6 mm 1 mps 737 mmHg 79%
12:00 +30°C° 0.6 mm 2 mps 737 mmHg 77%
13:00 +30°C° 1 mm 2 mps 736 mmHg 79%
14:00 +29°C° 1 mm 2 mps 735 mmHg 80%
15:00 +29°C° 1 mm 2 mps 735 mmHg 82%
16:00 +28°C° 0.4 mm 2 mps 735 mmHg 84%
17:00 +28°C° 0.4 mm 2 mps 735 mmHg 86%
18:00 +27°C° 0.4 mm 1 mps 735 mmHg 88%
19:00 +26°C° 0.7 mm 1 mps 736 mmHg 90%
20:00 +25°C° 0.7 mm 1 mps 736 mmHg 93%
21:00 +24°C° 0.7 mm 1 mps 736 mmHg 96%
22:00 +24°C° 0.1 mm 1 mps 736 mmHg 96%
23:00 +24°C° 0.1 mm 1 mps 736 mmHg 97%

Tomorrow, 23 January, Saturday

Time Temperature Precipitation Wind Pressure Humidity
00:00 +24°C° 0.1 mm 1 mps 736 mmHg 97%
01:00 +24°C° 0 mm 1 mps 736 mmHg 97%
02:00 +22°C° 0 mm 0 mps 735 mmHg 97%
03:00 +21°C° 0 mm 0 mps 735 mmHg 97%
04:00 +21°C° 0 mm 0 mps 735 mmHg 97%
05:00 +22°C° 0 mm 0 mps 735 mmHg 97%
06:00 +22°C° 0 mm 0 mps 735 mmHg 97%
07:00 +23°C° 0 mm 0 mps 736 mmHg 93%
08:00 +24°C° 0 mm 0 mps 736 mmHg 89%
09:00 +28°C° 0 mm 1 mps 737 mmHg 84%
10:00 +29°C° 0.2 mm 1 mps 737 mmHg 77%
11:00 +30°C° 0.2 mm 2 mps 737 mmHg 70%
12:00 +33°C° 0.2 mm 3 mps 736 mmHg 63%
13:00 +32°C° 0.6 mm 2 mps 736 mmHg 65%
14:00 +31°C° 0.6 mm 2 mps 735 mmHg 67%
15:00 +31°C° 0.6 mm 2 mps 734 mmHg 70%
16:00 +30°C° 0.9 mm 2 mps 734 mmHg 77%
17:00 +28°C° 0.9 mm 2 mps 734 mmHg 84%
18:00 +27°C° 0.9 mm 1 mps 734 mmHg 92%
19:00 +26°C° 0.9 mm 1 mps 734 mmHg 93%
20:00 +25°C° 0.9 mm 1 mps 735 mmHg 94%
21:00 +25°C° 0.9 mm 2 mps 735 mmHg 95%
22:00 +24°C° 0 mm 1 mps 735 mmHg 95%
23:00 +24°C° 0 mm 1 mps 735 mmHg 95%

Day after tomorrow, 24 January, Sunday

Time Temperature Precipitation Wind Pressure Humidity
00:00 +24°C° 0 mm 1 mps 735 mmHg 96%
01:00 +24°C° 0 mm 1 mps 735 mmHg 96%
02:00 +24°C° 0 mm 1 mps 734 mmHg 96%
03:00 +24°C° 0 mm 1 mps 734 mmHg 96%
04:00 +24°C° 0.1 mm 1 mps 734 mmHg 96%
05:00 +23°C° 0.1 mm 1 mps 735 mmHg 97%
06:00 +23°C° 0.1 mm 1 mps 735 mmHg 98%
07:00 +24°C° 0 mm 1 mps 735 mmHg 95%
08:00 +25°C° 0 mm 1 mps 736 mmHg 92%
09:00 +26°C° 0 mm 1 mps 737 mmHg 89%
10:00 +27°C° 0.1 mm 1 mps 736 mmHg 82%
11:00 +29°C° 0.1 mm 1 mps 736 mmHg 75%
12:00 +31°C° 0.1 mm 1 mps 736 mmHg 68%
13:00 +30°C° 1.2 mm 1 mps 735 mmHg 71%
14:00 +30°C° 1.2 mm 2 mps 734 mmHg 75%
15:00 +30°C° 1.2 mm 2 mps 733 mmHg 78%
16:00 +29°C° 1.9 mm 2 mps 733 mmHg 82%
17:00 +28°C° 1.9 mm 1 mps 733 mmHg 87%
18:00 +27°C° 1.9 mm 1 mps 733 mmHg 92%
19:00 +26°C° 0.7 mm 1 mps 733 mmHg 93%
20:00 +25°C° 0.7 mm 1 mps 734 mmHg 94%
21:00 +25°C° 0.7 mm 1 mps 734 mmHg 95%
22:00 +24°C° 1.9 mm 1 mps 735 mmHg 95%
23:00 +24°C° 1.9 mm 2 mps 735 mmHg 96%

25 January, Monday

Time Temperature Precipitation Wind Pressure Humidity
00:00 +24°C° 1.9 mm 2 mps 735 mmHg 97%
01:00 +24°C° 0.2 mm 2 mps 734 mmHg 97%
02:00 +24°C° 0.2 mm 1 mps 734 mmHg 97%
03:00 +23°C° 0.2 mm 1 mps 733 mmHg 97%
04:00 +23°C° 0 mm 1 mps 733 mmHg 96%
05:00 +23°C° 0 mm 1 mps 734 mmHg 96%
06:00 +21°C° 0 mm 0 mps 734 mmHg 95%
07:00 +22°C° 0 mm 0 mps 734 mmHg 92%
08:00 +24°C° 0 mm 0 mps 735 mmHg 88%
09:00 +25°C° 0 mm 0 mps 736 mmHg 84%
10:00 +28°C° 0.8 mm 1 mps 736 mmHg 84%
11:00 +28°C° 0.8 mm 1 mps 735 mmHg 84%
12:00 +29°C° 0.8 mm 1 mps 735 mmHg 84%
13:00 +29°C° 1.4 mm 1 mps 734 mmHg 84%
14:00 +29°C° 1.4 mm 1 mps 734 mmHg 85%
15:00 +29°C° 1.4 mm 1 mps 733 mmHg 86%
16:00 +28°C° 0.5 mm 1 mps 733 mmHg 88%
17:00 +27°C° 0.5 mm 1 mps 733 mmHg 91%
18:00 +27°C° 0.5 mm 1 mps 733 mmHg 94%
19:00 +26°C° 0 mm 1 mps 734 mmHg 94%
20:00 +25°C° 0 mm 1 mps 734 mmHg 94%
21:00 +25°C° 0 mm 1 mps 734 mmHg 95%
22:00 +25°C° 0 mm 1 mps 734 mmHg 95%
23:00 +25°C° 0 mm 1 mps 734 mmHg 95%

26 January, Tuesday

Time Temperature Precipitation Wind Pressure Humidity
00:00 +24°C° 0 mm 1 mps 734 mmHg 96%
01:00 +24°C° 0 mm 1 mps 734 mmHg 96%
02:00 +24°C° 0 mm 1 mps 734 mmHg 96%
03:00 +24°C° 0 mm 1 mps 733 mmHg 96%
04:00 +24°C° 0 mm 1 mps 734 mmHg 96%
05:00 +24°C° 0 mm 1 mps 734 mmHg 97%
06:00 +23°C° 0 mm 1 mps 734 mmHg 97%
07:00 +25°C° 0 mm 1 mps 735 mmHg 92%
08:00 +26°C° 0 mm 1 mps 735 mmHg 88%
09:00 +28°C° 0 mm 1 mps 736 mmHg 83%
10:00 +29°C° 0.3 mm 1 mps 736 mmHg 81%
11:00 +30°C° 0.3 mm 1 mps 736 mmHg 78%
12:00 +31°C° 0.3 mm 1 mps 736 mmHg 76%
13:00 +31°C° 0.9 mm 1 mps 735 mmHg 76%
14:00 +30°C° 0.9 mm 1 mps 734 mmHg 76%
15:00 +30°C° 0.9 mm 1 mps 734 mmHg 76%
16:00 +29°C° 0.5 mm 1 mps 733 mmHg 81%
17:00 +28°C° 0.5 mm 1 mps 733 mmHg 86%
18:00 +27°C° 0.5 mm 1 mps 733 mmHg 90%
19:00 +27°C° 0.8 mm 1 mps 734 mmHg 92%
20:00 +26°C° 0.8 mm 1 mps 734 mmHg 94%
21:00 +25°C° 0.8 mm 1 mps 735 mmHg 96%
22:00 +25°C° 0.3 mm 1 mps 735 mmHg 96%
23:00 +24°C° 0.3 mm 1 mps 735 mmHg 96%

27 January, Wednesday

Time Temperature Precipitation Wind Pressure Humidity
00:00 +24°C° 0.3 mm 1 mps 735 mmHg 96%
01:00 +24°C° 0.1 mm 1 mps 735 mmHg 96%
02:00 +24°C° 0.1 mm 1 mps 734 mmHg 96%
03:00 +24°C° 0.1 mm 1 mps 734 mmHg 96%
04:00 +24°C° 0 mm 1 mps 734 mmHg 97%
05:00 +23°C° 0 mm 1 mps 734 mmHg 97%
06:00 +23°C° 0 mm 1 mps 734 mmHg 98%
07:00 +24°C° 0 mm 1 mps 735 mmHg 95%
08:00 +26°C° 0 mm 1 mps 735 mmHg 92%
09:00 +27°C° 0 mm 1 mps 736 mmHg 89%
10:00 +28°C° 0.7 mm 1 mps 736 mmHg 85%
11:00 +29°C° 0.7 mm 1 mps 736 mmHg 82%
12:00 +29°C° 0.7 mm 0 mps 735 mmHg 78%
13:00 +31°C° 0.6 mm 1 mps 735 mmHg 75%
14:00 +31°C° 0.6 mm 1 mps 734 mmHg 71%
15:00 +31°C° 0.6 mm 1 mps 733 mmHg 68%
16:00 +30°C° 0.4 mm 1 mps 733 mmHg 75%
17:00 +29°C° 0.4 mm 1 mps 734 mmHg 82%
18:00 +27°C° 0.4 mm 1 mps 734 mmHg 89%
19:00 +27°C° 0.3 mm 1 mps 734 mmHg 91%
20:00 +26°C° 0.3 mm 1 mps 735 mmHg 93%
21:00 +25°C° 0.3 mm 1 mps 735 mmHg 95%
22:00 +24°C° 0 mm 1 mps 735 mmHg 95%
23:00 +24°C° 0 mm 1 mps 735 mmHg 95%
Show more